DW8078 Weather Reports


Display with metric or nautical units.
time (UTC)temp
F
wind
direction
speed
MPH
gust
MPH
rain 1hr
in
rain 24hr
in
rain mn
in
humidity
%
barometer
mb
20190422234614 48 142 1.0 6.0 0.00 0.00 0.00 61 1024.5
20190422233027 49 156 1.0 5.0 0.00 0.00 0.00 60 1024.5
20190422231540 49 130 1.0 5.0 0.00 0.00 0.00 59 1024.6
20190422230049 50 146 2.0 6.0 0.00 0.00 0.00 58 1024.6
20190422224538 51 154 2.0 5.0 0.00 0.00 0.00 57 1024.7
20190422223034 51 158 2.0 6.0 0.00 0.00 0.00 57 1024.7
20190422221512 51 172 2.0 6.0 0.00 0.00 0.00 58 1024.8
20190422220008 51 153 3.0 8.0 0.00 0.00 0.00 59 1024.8
20190422214519 52 140 3.0 6.0 0.00 0.00 0.00 59 1024.9
20190422213026 52 146 3.0 7.0 0.00 0.00 0.00 58 1024.7
20190422211503 52 164 3.0 7.0 0.00 0.00 0.00 58 1024.7
20190422210004 53 165 3.0 7.0 0.00 0.00 0.00 58 1024.5
20190422204502 53 153 3.0 7.0 0.00 0.00 0.00 58 1024.6
20190422203151 53 160 4.0 7.0 0.00 0.00 0.00 58 1024.4
20190422201659 54 156 2.0 7.0 0.00 0.00 0.00 58 1024.3
20190422200230 54 133 1.0 5.0 0.00 0.00 0.00 59 1024.2
20190422194726 54 156 3.0 7.0 0.00 0.00 0.00 59 1024.2
20190422193211 55 160 1.0 4.0 0.00 0.00 0.00 58 1024.3
20190422191646 55 156 1.0 6.0 0.00 0.00 0.00 58 1024.2
20190422190314 56 161 4.0 8.0 0.00 0.00 0.00 57 1024.0
20190422184619 56 149 4.0 9.0 0.00 0.00 0.00 56 1023.9
20190422183206 57 147 5.0 8.0 0.00 0.00 0.00 56 1023.9
20190422181625 58 164 5.0 8.0 0.00 0.00 0.00 54 1023.8
20190422180136 58 169 5.0 9.0 0.00 0.00 0.00 53 1023.7
20190422174655 59 165 5.0 8.0 0.00 0.00 0.00 51 1023.5
20190422173120 59 175 4.0 12.0 0.00 0.00 0.00 50 1023.4
20190422171700 60 159 7.0 14.0 0.00 0.00 0.00 49 1023.2
20190422170149 60 165 6.0 17.0 0.00 0.00 0.00 49 1023.3
20190422164617 60 150 5.0 17.0 0.00 0.00 0.00 49 1023.2
20190422163128 61 161 4.0 21.0 0.00 0.00 0.00 49 1023.3
20190422161629 61 167 8.0 15.0 0.00 0.00 0.00 48 1023.1
20190422160145 61 167 6.0 19.0 0.00 0.00 0.00 48 1023.2
20190422154656 60 176 7.0 20.0 0.00 0.00 0.00 49 1023.1
20190422153224 60 142 5.0 13.0 0.00 0.00 0.00 49 1023.2
20190422151559 61 179 10.0 18.0 0.00 0.00 0.00 47 1023.2
20190422150145 61 174 10.0 19.0 0.00 0.00 0.00 46 1023.3
20190422144607 61 176 8.0 18.0 0.00 0.00 0.00 47 1023.4
20190422143131 61 179 7.0 17.0 0.00 0.00 0.00 46 1023.3
20190422141554 61 162 11.0 19.0 0.00 0.00 0.00 47 1023.4
20190422140114 61 172 7.0 15.0 0.00 0.00 0.00 47 1023.3
20190422134607 62 161 13.0 19.0 0.00 0.00 0.00 47 1023.3
20190422133102 61 200 8.0 22.0 0.00 0.00 0.00 47 1023.3
20190422131610 62 208 5.0 18.0 0.00 0.00 0.00 47 1023.3
20190422130104 62 198 5.0 17.0 0.00 0.00 0.00 47 1023.3
20190422124602 63 159 6.0 15.0 0.00 0.00 0.00 46 1023.4
20190422123105 62 167 11.0 22.0 0.00 0.00 0.00 47 1023.2
20190422121537 61 144 6.0 19.0 0.00 0.00 0.00 47 1023.3
20190422120136 61 141 9.0 18.0 0.00 0.00 0.00 48 1023.3
20190422114555 61 142 8.0 13.0 0.00 0.00 0.00 48 1023.2
20190422113031 61 162 8.0 14.0 0.00 0.00 0.00 49 1023.3
20190422111605 60 157 9.0 18.0 0.00 0.00 0.00 51 1023.3
20190422110050 59 166 3.0 16.0 0.00 0.00 0.00 54 1023.6
20190422104546 59 133 5.0 18.0 0.00 0.00 0.00 54 1023.7
20190422103032 59 180 4.0 17.0 0.00 0.00 0.00 56 1023.7
20190422101549 58 186 4.0 14.0 0.00 0.00 0.00 57 1023.7
20190422100033 58 159 6.0 21.0 0.00 0.00 0.00 58 1023.6
20190422094535 57 173 11.0 19.0 0.00 0.00 0.00 58 1023.6
20190422093015 57 169 6.0 18.0 0.00 0.00 0.00 59 1023.6
20190422090002 54 151 5.0 15.0 0.00 0.00 0.00 64 1023.7
20190422084639 54 155 9.0 16.0 0.00 0.00 0.00 66 1023.7
20190422083158 52 121 3.0 10.0 0.00 0.00 0.00 70 1023.8
20190422081642 51 126 3.0 8.0 0.00 0.00 0.00 73 1023.7
20190422080119 49 120 2.0 10.0 0.00 0.00 0.00 77 1023.6
20190422074707 48 109 4.0 9.0 0.00 0.00 0.00 79 1023.8
20190422073128 45 165 4.0 10.0 0.00 0.00 0.00 83 1023.8
20190422071638 44 163 1.0 11.0 0.00 0.00 0.00 85 1023.8
20190422070050 43 140 5.0 11.0 0.00 0.00 0.00 85 1023.5
20190422064559 42 123 2.0 12.0 0.00 0.00 0.00 84 1023.7
20190422063126 42 97 5.0 13.0 0.00 0.00 0.00 82 1023.6
20190422061539 43 167 5.0 13.0 0.00 0.00 0.00 81 1023.5
20190422060124 44 112 3.0 14.0 0.00 0.00 0.00 82 1023.5
20190422054543 44 145 8.0 12.0 0.00 0.00 0.00 81 1023.3
20190422053032 43 161 1.0 5.0 0.00 0.00 0.00 81 1023.0
20190422051547 42 111 0.0 3.0 0.00 0.00 0.00 82 1022.8
20190422050023 41 102 0.0 0.0 0.00 0.00 0.00 81 1022.7
20190422044513 41 123 0.0 1.0 0.00 0.00 0.00 82 1022.6
20190422043012 40 113 0.0 0.0 0.00 0.00 0.00 82 1022.4
20190422041832 39 114 0.0 1.0 0.00 0.00 0.00 82 1022.1
20190422040206 39 109 0.0 0.0 0.00 0.00 0.00 82 1022.2
20190422034709 39 107 0.0 0.0 0.00 0.00 0.00 81 1022.0
20190422033118 39 110 0.0 0.0 0.00 0.00 0.00 80 1021.9
20190422031643 40 110 0.0 0.0 0.00 0.00 0.00 80 1021.9
20190422030123 40 100 0.0 0.0 0.00 0.00 0.00 79 1021.9
20190422024615 40 91 0.0 0.0 0.00 0.00 0.00 79 1021.8
20190422023159 40 121 0.0 0.0 0.00 0.00 0.00 79 1021.8
20190422021656 40 104 0.0 0.0 0.00 0.00 0.00 78 1021.8
20190422020133 41 103 0.0 0.0 0.00 0.00 0.00 78 1021.8
20190422014606 41 111 0.0 0.0 0.00 0.00 0.00 78 1021.9
20190422013137 41 125 0.0 1.0 0.00 0.00 0.00 77 1021.9
20190422011607 41 104 0.0 0.0 0.00 0.00 0.00 77 1021.8
20190422010128 41 121 0.0 2.0 0.00 0.00 0.00 77 1021.8
20190422004652 41 95 0.0 2.0 0.00 0.00 0.00 77 1021.8
20190422003110 41 126 0.0 3.0 0.00 0.00 0.00 77 1021.8
20190422001608 41 109 0.0 2.0 0.00 0.00 0.00 78 1021.7
20190422000118 41 107 0.0 2.0 0.00 0.00 0.00 79 1021.8